STARLINK-1514 (46046 NORAD) Tracking and Keplerian Element Data

This shows tracking and keplerian element data for the satellite.

Feedback or suggestion? Click here.




ElementValue
Catalog46046
NameSTARLINK-1514
Epoch Orbit1928
Epoch Day338.52365885
Epoch Year2020
RAAN105.5353
Inclination53.0119
Eccentricity0.000271
Argument of Perigee18.8974
Mean Anonmoly341.2114
Mean Motion15.06269195
Decay Rate-7.45E-05
L11 46046U 20055V 20338.52365885 -.00007450 00000-0 -48339-3 0 9998
L22 46046 53.0119 105.5353 0002710 18.8974 341.2114 15.06269195 19280

Live tracking and technical data element details for STARLINK-1514 (NORAD 46046). STARLINK-1514 can be tracked NOW for your location showing map with azimuth and elevation plus other details from your city location.

Track the satellite on the map from your city or location and see movement details for azimuth, elevation, latitude, longitude, range, height, and movement on the map or in text.







IsCatalogInMostPopularTable: catalog: 46046, numindb: 26
Update: records affected: 1



GetName: 46046 STARLINK-1514

Hit Count: updated at: Sat, 05 Dec 2020 05:38:26 GMT